Location: Devargunta
(16.7631°N, 80.9077°E)
Time: 16:39:58
(UTC+00:00)

Cosmos 2026 Rocket - Pass Details

Date: 19 January 2021
Orbit: 940 x 1000 km, 82.9° (Epoch: 26 February)

Event Time Altitude Azimuth Distance (km) Brightness Sun altitude
Rises 13:45:21 0° 186° (S) 3,589 7.3 -19.0°
Reaches altitude 10° 13:47:49 10° 187° (S) 2,647 6.6 -19.5°
Maximum altitude 13:53:52 80° 274° (W) 959 4.0 -20.9°
Drops below altitude 10° 13:59:58 10° 1° (N) 2,671 6.1 -22.3°
Sets 14:02:28 0° 2° (N) 3,625 6.8 -22.9°
